Location: ???????????
(55.5758°N, 38.4970°E)
Time: 18:10:47
(UTC+00:00)

COSMOS 2428 - Pass Details

Date: 15 November 2025
Orbit: 847 x 852 km, 70.9° (Epoch: 14 December)

Event Time Altitude Azimuth Distance (km) Brightness Sun altitude
Exits shadow 03:21:04 19° 291° (WNW) 1,899 3.9 -13.7°
Maximum altitude 03:23:41 27° 330° (NNW) 1,587 3.8 -13.4°
Drops below altitude 10° 03:28:29 10° 28° (NNE) 2,484 5.3 -12.7°
Sets 03:31:20 0° 40° (NE) 3,422 6.2 -12.3°
